[TLELIST] Archives

 

Current TLEs

July 2nd 2007 PST

HST 1 20580U 90037B 07181.97824128 +.00000288 +00000-0 +94450-5 0 09199 2 20580 028.4680 100.1939 0003777 237.3901 122.6323 15.00255472742033 ISS (ZARYA) 1 25544U 98067A 07183.13310343 .00016994 00000-0 98906-4 0 5044 2 25544 051.6365 026.6583 0008678 024.1472 074.2350 15.78569079493135 CXO 1 25867U 99040B 07180.87500000 .00000361 00000-0 00000+0 0 851 2 25867 061.9344 089.0621 6249292 283.8075 357.9086 00.37804113 2300 ____________________________________________________________________ These 2-Line ...Continue Reading

Current TLEs

July 1st 2007 PST

HST 1 20580U 90037B 07182.17781458 .00000315 00000-0 11579-4 0 9078 2 20580 028.4679 098.8911 0003696 238.8870 121.1359 15.00255741742060 ISS (ZARYA) 1 25544U 98067A 07182.06371962 .00016256 00000-0 94965-4 0 4983 2 25544 051.6345 032.1850 0008468 019.8953 117.2977 15.78528761492960 CXO 1 25867U 99040B 07180.87500000 .00000361 00000-0 00000+0 0 851 2 25867 061.9344 089.0621 6249292 283.8075 357.9086 00.37804113 2300 ____________________________________________________________________ These 2-Line ...Continue Reading

Current TLEs

June 30th 2007 PST

PUBLIC "-//W3C//DTD XHTML 1.0 Transitional//EN" "http://www.w3.org/TR/xhtml1/DTD/xhtml1-transitional.dtd"> ____________________________________________________________________ These 2-Line Elements (TLEs) are direct from DoD/ USSTRATCOM/ US Space Command with permission. Updates are provided automatically daily. By receiving this email, you agree not to transfer any data or information received under this agreement, including the analysis of tracking data, to any other entity without the ...Continue Reading

Current TLEs

June 29th 2007 PST

HST 1 20580U 90037B 07178.25287105 +.00000291 +00000-0 +96635-5 0 09061 2 20580 028.4678 124.4861 0003773 200.0918 159.9523 15.00254383741476 ISS (ZARYA) 1 25544U 98067A 07180.10120244 .00014479 00000-0 85302-4 0 4857 2 25544 051.6346 042.3306 0008271 013.3754 124.0930 15.78458270492658 CXO 1 25867U 99040B 07180.87500000 .00000361 00000-0 00000+0 0 851 2 25867 061.9344 089.0621 6249292 283.8075 357.9086 00.37804113 2300 ____________________________________________________________________ These 2-Line ...Continue Reading

Current TLEs

June 28th 2007 PST

HST 1 20580U 90037B 07179.25073811 .00000321 00000-0 12054-4 0 9054 2 20580 028.4678 117.9798 0003744 209.8193 150.2185 15.00254893741623 ISS (ZARYA) 1 25544U 98067A 07179.45459622 .00014280 00000-0 84263-4 0 4819 2 25544 051.6330 045.6765 0008187 010.9676 049.7228 15.78437722492559 CXO 1 25867U 99040B 07178.20833333 .00000344 00000-0 00000+0 0 843 2 25867 061.9226 089.1078 6243395 283.8638 354.8466 00.37804061 2297 ____________________________________________________________________ These 2-Line ...Continue Reading

Current TLEs

June 27th 2007 PST

HST 1 20580U 90037B 07176.92238080 +.00000262 +00000-0 +74146-5 0 09040 2 20580 028.4680 133.1631 0003961 189.0692 170.9834 15.00253883741275 ISS (ZARYA) 1 25544U 98067A 07178.00149319 .00015789 00000-0 92906-4 0 4726 2 25544 051.6337 053.1819 0007925 006.5501 071.6011 15.78399690492327 CXO 1 25867U 99040B 07178.20833333 .00000344 00000-0 00000+0 0 843 2 25867 061.9226 089.1078 6243395 283.8638 354.8466 00.37804061 2297 ____________________________________________________________________ These 2-Line ...Continue Reading

Current TLEs

June 26th 2007 PST

HST 1 20580U 90037B 07175.92451366 +.00000247 +00000-0 +62934-5 0 09082 2 20580 028.4681 139.6710 0003929 179.0774 180.9834 15.00253579741126 ISS (ZARYA) 1 25544U 98067A 07176.99778003 .00016405 00000-0 96506-4 0 4669 2 25544 051.6338 058.3694 0007927 002.3792 128.6397 15.78369485492165 CXO 1 25867U 99040B 07178.20833333 .00000344 00000-0 00000+0 0 843 2 25867 061.9226 089.1078 6243395 283.8638 354.8466 00.37804061 2297 ____________________________________________________________________ These 2-Line ...Continue Reading

Current TLEs

June 25th 2007 PST

HST 1 20580U 90037B 07174.32792504 +.00000256 +00000-0 +69853-5 0 09107 2 20580 028.4682 150.0816 0003908 162.2705 197.8022 15.00253364740886 ISS (ZARYA) 1 25544U 98067A 07176.29687698 .00016413 00000-0 96652-4 0 4628 2 25544 051.6340 061.9932 0007847 000.0086 105.7243 15.78346156492059 CXO 1 25867U 99040B 07175.58333333 .00000326 00000-0 00000+0 0 835 2 25867 061.9088 089.1435 6238595 283.9294 357.4355 00.37804530 2281 ____________________________________________________________________ These 2-Line ...Continue Reading

Current TLEs

June 24th 2007 PST

HST 1 20580U 90037B 07175.19274390 .00000245 00000-0 60761-5 0 9029 2 20580 028.4681 144.4426 0003905 171.3280 188.7375 15.00253424741018 ISS (ZARYA) 1 25544U 98067A 07175.16638720 .00014713 00000-0 87231-4 0 4562 2 25544 051.6341 067.8362 0007933 355.3072 162.6430 15.78301196491873 CXO 1 25867U 99040B 07175.58333333 .00000326 00000-0 00000+0 0 835 2 25867 061.9088 089.1435 6238595 283.9294 357.4355 00.37804530 2281 ____________________________________________________________________ These 2-Line ...Continue Reading

Current TLEs

June 23rd 2007 PST

HST 1 20580U 90037B 07172.39871302 +.00000304 +00000-0 +10713-4 0 09043 2 20580 028.4680 162.6613 0003870 142.4920 217.5941 15.00253223740597 ISS (ZARYA) 1 25544U 98067A 07174.33418022 .00013477 00000-0 80361-4 0 4519 2 25544 051.6347 072.1375 0007694 352.7421 113.5234 15.78270221491742 CXO 1 25867U 99040B 07175.58333333 .00000326 00000-0 00000+0 0 835 2 25867 061.9088 089.1435 6238595 283.9294 357.4355 00.37804530 2281 ____________________________________________________________________ These 2-Line ...Continue Reading
  • This mailing list is a public mailing list - anyone may join or leave, at any time.
  • This mailing list is announce-only.

International Space Station (ISS) / Hubble Space Telescope (HST) / Chandra X-Ray Observatory Orbital Data via EMAIL

Privacy Policy:

Private list